Погода в Моховом

Россия / Орловская область     53°02′47″N   37°20′38″E
темп.,
°C
ветер,
м/с
пор.,
м/с
влажн.,
%
обл.,
%
осадки,
мм/ч
давл.,
гПа
погр.,
м
11 мая, вт
вт1100:00+8ссв7177685 0.0 1022515
03:00+8ссв71680100 0.0 1022399
06:00+8ссв8178397 0.0 1021422
09:00+10св7168481 0.0 1021562
12:00+16всв8107476 0.0 1021981
15:00+10юв61190100 0.2 1023481
18:00+11в59780 0.2 1024754
21:00+8вюв38850 0.2 1026170
12 мая, ср
ср1200:00+6вюв38934 0.0 1027208
03:00+5всв349111 0.0 102651
06:00+6всв3788100 0.0 1026175
09:00+9св3782100 0.2 1024315
12:00+7юз2394100 7.0 1021198
15:00+6ююз5796100 16.0 1019331
18:00+8ююв588628 1.0 1019588
21:00+7в5139357 1.1 1019371
13 мая, чт
чт1300:00+9в6139219 0.4 1019443
03:00+9вюв61493100 0.9 1018624
06:00+9юв5129698 0.4 1018439
09:00+13ююв477951 0.4 1018656
12:00+16ююв466699 0.0 10171388
15:00+17ююв3463100 0.2 10161222
18:00+16ююв367684 0.6 1016492
21:00+11юв359021 0.9 101789
14 мая, пт
пт1400:00+10юв348917 0.0 101760
03:00+11вюв3888100 0.0 1017160
06:00+12вюв51293100 0.0 1017272
09:00+16вюв6118599 0.5 1016449
12:00+20юв71070100 0.4 10141028
15:00+21юв7107239 1.1 10131253
18:00+20ююв597896 0.9 1012438
21:00+17ю379060 1.0 1012106
15 мая, сб
сб1500:00+15ю2291100 0.7 101112
03:00+15ююв61093100 7.0 1013266
06:00+14юв3595100 1.7 1012135
09:00+17вюв248891 1.7 1011215
12:00+20ююз247315 1.6 1011579
15:00+22ю686679 0.3 10091460
18:00
21:00+15юз3591100 7.3 100994